Tracking 29892 objects as of 21-Nov-2024
HD Live streaming from Space Station
objects crossing your sky now

FENGYUN 1C DEB

Track FENGYUN 1C DEB now!
10-day predictions


NORAD ID: 29852
Int'l Code: 1999-025EW
Perigee: 787.9 km
Apogee: 992.9 km
Inclination: 99.4 °
Period: 102.6 minutes
Semi major axis: 7261 km
RCS: 0.046 m2 (small)
Launch date: May 10, 1999
Source: People's Republic of China (PRC)
Launch site: Taiyaun Space Center, China (TSC)

Note: This is SATELLITE DEBRIS
Your satellite tracking list
Your tracking list is empty




NASA's NSSDC Master Catalog

Two Line Element Set (TLE):
1 29852U 99025EW  24325.62697013  .00004907  00000-0  29176-2 0  9998
2 29852  99.3667 316.4040 0141165 136.4292 288.9918 14.03039709905477
Source of the keplerian elements: AFSPC